Flag for Iceland Weather past 2 weeks in Keflavík, Iceland

Now
55 °F

Scattered clouds.


Feels Like: 55 °F
Forecast: 50 / 55 °F
Wind: 5 mph from Southwest

Location: Keflavikurflugvollur

Current Time: Jul 7, 2015 at 1:16:59 PM

Latest Report: Jul 7, 2015 at 12:30 PM


Visibility: N/A

Pressure: 30.09 "Hg

Humidity: 67%

Dew point: 45 °F

Location of KeflavíkLocation

Historic Weather in Keflavík — Graph

°F

Keflavík temperature yesterday

Maximum temperature yesterday: 54 °F (at 9:30 AM)
Minimum temperature yesterday: 48 °F (at 5:00 AM)
Average temperature yesterday: 51 °F

Past Weeks' High & Low Weather Summary

 TemperatureHumidityPressure
High63 °F (Jul 4, 3:00 PM)100% (Jun 22, 11:00 PM)30.18 "Hg (Jun 22, 11:00 PM)
Low43 °F (Jun 22, 11:00 PM)45% (Jun 26, 1:30 PM)29.59 "Hg (Jun 30, 9:30 PM)
Average51 °F81%29.93 "Hg
* Reported Jun 22 12:00 Noon — Jul 7 12:00 Noon, Keflavík, Weather by CustomWeather, © 2015

Note: Actual official high and low records may vary slightly from our data, if they occured in-between our weather recording intervals... More about our weather records

Advertising

Keflavík weather history for previous 24 hours

 ConditionsComfort  
Time TempWeatherWind HumidityBarometerVisibility
12:00 PM
Tue, Jul 7
55 °FScattered clouds.2 mph67%30.09 "HgN/A
11:30 AM55 °FScattered clouds.6 mph72%30.09 "HgN/A
11:00 AM54 °FScattered clouds.6 mph77%30.09 "HgN/A
10:30 AM55 °FPartly sunny.8 mph77%30.09 "HgN/A
10:00 AM52 °FBroken clouds.7 mph82%30.09 "HgN/A
9:30 AM52 °FBroken clouds.8 mph82%30.07 "HgN/A
9:00 AM52 °FBroken clouds.6 mph82%30.07 "HgN/A
8:30 AM52 °FPartly sunny.6 mph88%30.07 "HgN/A
8:00 AM52 °FPartly sunny.6 mph88%30.07 "HgN/A
7:31 AM52 °FBroken clouds.6 mph88%30.07 "HgN/A
7:00 AM50 °FBroken clouds.6 mph94%30.07 "HgN/A
6:30 AM50 °FBroken clouds.5 mph94%30.07 "HgN/A
6:00 AM48 °FBroken clouds.7 mph94%30.07 "HgN/A
5:30 AM48 °FPartly sunny.7 mph100%30.07 "HgN/A
5:00 AM48 °FBroken clouds.7 mph94%30.04 "HgN/A
4:30 AM46 °FBroken clouds.8 mph100%30.07 "HgN/A
4:00 AM46 °FBroken clouds.6 mph100%30.04 "HgN/A
3:30 AM48 °FBroken clouds.7 mph94%30.04 "HgN/A
3:00 AM48 °FPartly cloudy.1 mph100%30.04 "HgN/A
2:30 AM50 °FPartly cloudy.3 mph94%30.04 "HgN/A
2:00 AM50 °FPassing clouds.6 mph94%30.04 "HgN/A
1:30 AM50 °FPassing clouds.5 mph94%30.04 "HgN/A
1:00 AM50 °FClear.5 mph94%30.04 "Hg10 mi
12:30 AM50 °FClear.9 mph94%30.04 "Hg10 mi
12:00 AM50 °FClear.9 mph94%30.07 "Hg10 mi
11:30 PM
Mon, Jul 6
50 °FPartly sunny.10 mph94%30.07 "HgN/A
11:01 PM50 °FBroken clouds.9 mph88%30.07 "HgN/A
10:30 PM50 °FPartly sunny.10 mph88%30.07 "HgN/A
10:00 PM50 °FPartly sunny.9 mph88%30.07 "HgN/A
9:00 PM50 °FBroken clouds.9 mph88%30.07 "HgN/A
8:30 PM50 °FPartly sunny.10 mph88%30.07 "HgN/A
8:00 PM52 °FBroken clouds.8 mph82%30.07 "HgN/A
7:30 PM54 °FBroken clouds.9 mph72%30.07 "HgN/A
7:00 PM54 °FPartly sunny.7 mph77%30.04 "HgN/A
6:30 PM54 °FBroken clouds.7 mph77%30.04 "HgN/A
6:00 PM54 °FBroken clouds.6 mph77%30.04 "HgN/A
5:30 PM54 °FBroken clouds.6 mph77%30.04 "HgN/A
5:00 PM54 °FBroken clouds.7 mph77%30.04 "HgN/A
4:30 PM54 °FBroken clouds.7 mph77%30.04 "HgN/A
4:00 PM54 °FBroken clouds.7 mph82%30.04 "HgN/A
3:30 PM52 °FBroken clouds.3 mph88%30.04 "HgN/A
3:00 PM52 °FLight rain. Partly sunny.5 mph88%30.04 "HgN/A
2:30 PM52 °FLight rain. Partly sunny.5 mph88%30.04 "Hg4 mi
2:00 PM54 °FPartly sunny.3 mph77%30.04 "HgN/A
1:30 PM52 °FPartly sunny.3 mph82%30.04 "HgN/A
1:00 PM52 °FScattered showers. Broken clouds.5 mph88%30.04 "HgN/A
Weather by CustomWeather, © 2015

See weather overviewHow to use our weather pages